When you browse on this site, cookies collect data to enhance your experience and personalize the content and advertising you see.
Visit our Privacy Policy to learn more. By continuing to use the site, you agree to this use of cookies and data.
  • In Slovakia
  • List of Countries
  • For 7 days
  • Water Temperature
  • Satellite Maps
  • Weather Map
  • Weather Widgets
  • user-avatar
    Login

    Hourly Weather Djelfa

    Today, 14 December, Friday

    Time Temperature Precipitation Wind Pressure Humidity
    00:00 +3°C° 0 mm 12 mps 659 mmHg 65%
    01:00 +2°C° 0.1 mm 12 mps 659 mmHg 66%
    02:00 +2°C° 0.1 mm 12 mps 659 mmHg 68%
    03:00 0°C° 0.1 mm 12 mps 658 mmHg 70%
    04:00 +1°C° 0.2 mm 13 mps 658 mmHg 71%
    05:00 +1°C° 0.2 mm 14 mps 658 mmHg 72%
    06:00 +1°C° 0 mm 15 mps 658 mmHg 73%
    07:00 +1°C° 0.3 mm 16 mps 658 mmHg 71%
    08:00 +1°C° 0.3 mm 17 mps 658 mmHg 70%
    09:00 +2°C° 0.3 mm 19 mps 658 mmHg 68%
    10:00 +2°C° 0.3 mm 19 mps 659 mmHg 66%
    11:00 +3°C° 0.3 mm 19 mps 659 mmHg 64%
    12:00 +5°C° 0.3 mm 18 mps 659 mmHg 62%
    13:00 +3°C° 0.3 mm 18 mps 660 mmHg 63%
    14:00 +3°C° 0.3 mm 17 mps 660 mmHg 64%
    15:00 +3°C° 0.3 mm 17 mps 660 mmHg 66%
    16:00 +3°C° 0.1 mm 17 mps 661 mmHg 69%
    17:00 +2°C° 0.1 mm 16 mps 662 mmHg 73%
    18:00 +2°C° 0.1 mm 16 mps 662 mmHg 77%
    19:00 +1°C° 0 mm 14 mps 663 mmHg 79%
    20:00 +1°C° 0 mm 13 mps 663 mmHg 80%
    21:00 +2°C° 0 mm 11 mps 664 mmHg 81%
    22:00 +2°C° 0 mm 11 mps 664 mmHg 82%
    23:00 +2°C° 0 mm 10 mps 665 mmHg 82%

    Tomorrow, 15 December, Saturday

    Time Temperature Precipitation Wind Pressure Humidity
    00:00 +2°C° 0 mm 10 mps 665 mmHg 82%
    01:00 +2°C° 0 mm 9 mps 666 mmHg 83%
    02:00 +2°C° 0 mm 9 mps 666 mmHg 84%
    03:00 +1°C° 0 mm 8 mps 666 mmHg 85%
    04:00 +1°C° 0 mm 8 mps 666 mmHg 86%
    05:00 +1°C° 0 mm 8 mps 666 mmHg 88%
    06:00 0°C° 0 mm 8 mps 667 mmHg 89%
    07:00 +1°C° 0 mm 9 mps 667 mmHg 84%
    08:00 +2°C° 0 mm 9 mps 668 mmHg 79%
    09:00 +2°C° 0 mm 9 mps 668 mmHg 75%
    10:00 +4°C° 0 mm 8 mps 668 mmHg 68%
    11:00 +6°C° 0 mm 8 mps 668 mmHg 61%
    12:00 +7°C° 0 mm 8 mps 669 mmHg 54%
    13:00 +7°C° 0 mm 8 mps 668 mmHg 53%
    14:00 +7°C° 0 mm 8 mps 668 mmHg 52%
    15:00 +8°C° 0 mm 7 mps 668 mmHg 50%
    16:00 +6°C° 0 mm 7 mps 668 mmHg 54%
    17:00 +7°C° 0 mm 6 mps 668 mmHg 58%
    18:00 +5°C° 0 mm 6 mps 668 mmHg 61%
    19:00 +6°C° 0 mm 5 mps 668 mmHg 63%
    20:00 +5°C° 0 mm 5 mps 669 mmHg 64%
    21:00 +5°C° 0 mm 4 mps 669 mmHg 65%
    22:00 +5°C° 0 mm 4 mps 669 mmHg 65%
    23:00 +5°C° 0 mm 3 mps 668 mmHg 64%

    Day after tomorrow, 16 December, Sunday

    Time Temperature Precipitation Wind Pressure Humidity
    00:00 +5°C° 0 mm 3 mps 668 mmHg 64%
    01:00 +4°C° 0 mm 3 mps 668 mmHg 63%
    02:00 +4°C° 0 mm 3 mps 668 mmHg 62%
    03:00 +4°C° 0 mm 3 mps 668 mmHg 61%
    04:00 +4°C° 0 mm 3 mps 668 mmHg 61%
    05:00 +5°C° 0 mm 3 mps 668 mmHg 61%
    06:00 +5°C° 0 mm 3 mps 668 mmHg 61%
    07:00 +7°C° 0 mm 3 mps 668 mmHg 57%
    08:00 +8°C° 0 mm 3 mps 669 mmHg 54%
    09:00 +10°C° 0 mm 3 mps 669 mmHg 50%
    10:00 +11°C° 0 mm 3 mps 670 mmHg 47%
    11:00 +13°C° 0 mm 3 mps 670 mmHg 44%
    12:00 +16°C° 0 mm 3 mps 670 mmHg 41%
    13:00 +16°C° 0 mm 3 mps 670 mmHg 40%
    14:00 +17°C° 0 mm 4 mps 669 mmHg 39%
    15:00 +17°C° 0 mm 4 mps 669 mmHg 37%
    16:00 +14°C° 0 mm 3 mps 669 mmHg 41%
    17:00 +13°C° 0 mm 3 mps 669 mmHg 45%
    18:00 +12°C° 0 mm 2 mps 669 mmHg 49%
    19:00 +12°C° 0 mm 2 mps 669 mmHg 49%
    20:00 +10°C° 0 mm 3 mps 669 mmHg 49%
    21:00 +10°C° 0 mm 3 mps 670 mmHg 50%
    22:00 +10°C° 0 mm 3 mps 669 mmHg 51%
    23:00 +9°C° 0 mm 3 mps 669 mmHg 52%

    17 December, Monday

    Time Temperature Precipitation Wind Pressure Humidity
    00:00 +9°C° 0 mm 3 mps 669 mmHg 53%
    01:00 +9°C° 0 mm 3 mps 669 mmHg 54%
    02:00 +7°C° 0 mm 4 mps 669 mmHg 55%
    03:00 +7°C° 0 mm 4 mps 668 mmHg 56%
    04:00 +7°C° 0 mm 4 mps 668 mmHg 57%
    05:00 +7°C° 0 mm 5 mps 668 mmHg 58%
    06:00 +7°C° 0 mm 5 mps 668 mmHg 59%
    07:00 +7°C° 0 mm 5 mps 669 mmHg 60%
    08:00 +8°C° 0 mm 6 mps 669 mmHg 60%
    09:00 +9°C° 0 mm 7 mps 670 mmHg 60%
    10:00 +10°C° 0 mm 7 mps 670 mmHg 60%
    11:00 +11°C° 0 mm 7 mps 670 mmHg 61%
    12:00 +12°C° 0 mm 8 mps 670 mmHg 61%
    13:00 +12°C° 0 mm 8 mps 670 mmHg 61%
    14:00 +12°C° 0 mm 8 mps 670 mmHg 61%
    15:00 +12°C° 0 mm 7 mps 670 mmHg 61%
    16:00 +11°C° 0 mm 6 mps 670 mmHg 66%
    17:00 +9°C° 0 mm 6 mps 670 mmHg 72%
    18:00 +8°C° 0 mm 5 mps 670 mmHg 78%
    19:00 +8°C° 0 mm 4 mps 670 mmHg 81%
    20:00 +8°C° 0 mm 3 mps 670 mmHg 84%
    21:00 +7°C° 0 mm 3 mps 670 mmHg 87%
    22:00 +7°C° 0 mm 2 mps 670 mmHg 88%
    23:00 +6°C° 0 mm 2 mps 670 mmHg 89%

    18 December, Tuesday

    Time Temperature Precipitation Wind Pressure Humidity
    00:00 +7°C° 0 mm 1 mps 670 mmHg 90%
    01:00 +6°C° 0 mm 1 mps 670 mmHg 90%
    02:00 +6°C° 0 mm 1 mps 669 mmHg 90%
    03:00 +6°C° 0 mm 1 mps 669 mmHg 89%
    04:00 +5°C° 0 mm 1 mps 669 mmHg 88%
    05:00 +5°C° 0 mm 1 mps 669 mmHg 87%
    06:00 +5°C° 0 mm 1 mps 669 mmHg 86%
    07:00 +6°C° 0 mm 1 mps 670 mmHg 75%
    08:00 +8°C° 0 mm 1 mps 671 mmHg 65%
    09:00 +10°C° 0 mm 1 mps 672 mmHg 55%
    10:00 +11°C° 0 mm 1 mps 672 mmHg 49%
    11:00 +13°C° 0 mm 2 mps 671 mmHg 42%
    12:00 +13°C° 0 mm 3 mps 671 mmHg 35%
    13:00 +13°C° 0 mm 3 mps 671 mmHg 35%
    14:00 +14°C° 0 mm 3 mps 671 mmHg 34%
    15:00 +14°C° 0 mm 3 mps 671 mmHg 34%
    16:00 +14°C° 0 mm 2 mps 670 mmHg 39%
    17:00 +12°C° 0 mm 2 mps 670 mmHg 44%
    18:00 +9°C° 0 mm 2 mps 670 mmHg 50%
    19:00 +9°C° 0 mm 2 mps 670 mmHg 52%
    20:00 +9°C° 0 mm 2 mps 670 mmHg 54%
    21:00 +8°C° 0 mm 2 mps 671 mmHg 57%
    22:00 +8°C° 0 mm 2 mps 670 mmHg 59%
    23:00 +7°C° 0 mm 2 mps 670 mmHg 61%

    19 December, Wednesday

    Time Temperature Precipitation Wind Pressure Humidity
    00:00 +7°C° 0 mm 2 mps 670 mmHg 63%
    01:00 +7°C° 0 mm 2 mps 670 mmHg 64%
    02:00 +7°C° 0 mm 2 mps 670 mmHg 66%
    03:00 +6°C° 0 mm 2 mps 669 mmHg 67%
    04:00 +6°C° 0 mm 2 mps 669 mmHg 69%
    05:00 +6°C° 0 mm 2 mps 669 mmHg 70%
    06:00 +6°C° 0 mm 2 mps 669 mmHg 71%
    07:00 +7°C° 0 mm 2 mps 670 mmHg 64%
    08:00 +9°C° 0 mm 2 mps 670 mmHg 58%
    09:00 +10°C° 0 mm 2 mps 671 mmHg 51%
    10:00 +11°C° 0 mm 3 mps 671 mmHg 46%
    11:00 +13°C° 0 mm 3 mps 671 mmHg 40%
    12:00 +14°C° 0 mm 3 mps 671 mmHg 35%
    13:00 +14°C° 0 mm 3 mps 670 mmHg 34%
    14:00 +16°C° 0 mm 3 mps 670 mmHg 33%
    15:00 +16°C° 0 mm 3 mps 669 mmHg 32%
    16:00 +13°C° 0 mm 3 mps 669 mmHg 37%
    17:00 +13°C° 0 mm 2 mps 669 mmHg 42%
    18:00 +10°C° 0 mm 2 mps 669 mmHg 47%
    19:00 +10°C° 0 mm 2 mps 669 mmHg 48%
    20:00 +9°C° 0 mm 2 mps 669 mmHg 49%
    21:00 +9°C° 0 mm 2 mps 669 mmHg 51%
    22:00 +8°C° 0 mm 2 mps 668 mmHg 51%
    23:00 +8°C° 0 mm 2 mps 668 mmHg 52%
    Show more